User: anonymous
Location: Owatonna
(44.0840°N, 93.2260°W)
Time: 06:54:30
(UTC-05:00)
Language:

Cosmos 1500 Rocket - Orbit

View from above orbital plane
View from above orbital plane
View from above satellite
View from above satellite

Ground track
Ground track

The orbit data is extracted from the following two-line orbital elements,

1 14373U 83099B   14203.84940684  .00000122  00000-0  11882-4 0  7155
2 14373 082.5430 155.1639 0022053 123.4717 293.5040 14.83106915663678
Epoch (UTC): 22 July 2014 20:23:08
Eccentricity: 0.0022053
inclination: 82.5430°
perigee height: 604 km
apogee height: 635 km
right ascension of ascending node: 155.1639°
argument of perigee: 123.4717°
revolutions per day: 14.83106915
mean anomaly at epoch: 293.5040°
orbit number at epoch: 66367

The dashed part of the orbit path shows where the satellite is in the earth's shadow,  

DLR